View from above orbital plane
|
View from above satellite
|
Ground track
|
The orbit data is extracted from the following two-line orbital elements,
1 23774U 96004B 21055.37522994 .00000143 00000-0 12978-3 0 9994
2 23774 82.9754 85.2264 0043994 173.4876 186.6863 13.76541938261028
Epoch (UTC): | 24 February 2021 09:00:19 |
Eccentricity: | 0.0043994 |
inclination: | 82.9754° |
perigee height: | 944 km |
apogee height: | 1008 km |
right ascension of ascending node: | 85.2264° |
argument of perigee: | 173.4876° |
revolutions per day: | 13.76541938 |
mean anomaly at epoch: | 186.6863° |
orbit number at epoch: | 26102 |
The dashed part of the orbit path shows where the satellite is in the earth's shadow,
|
|